Location: Arbon
(43.0005°N, 0.7472°E)
Time: 11:57:15
(UTC+00:00)

Vanguard 1 - Pass Details

Date: 02 December 2020
Orbit: 648 x 3834 km, 34.3° (Epoch: 23 January)

Event Time Altitude Azimuth Distance (km) Brightness Sun altitude
Rises 11:59:29 0° 263° (W) 5,772 14.1 24.9°
Reaches altitude 10° 12:07:18 10° 235° (SW) 5,554 14.6 24.8°
Maximum altitude 12:12:11 12° 218° (SW) 5,809 15.1 24.7°
Drops below altitude 10° 12:17:40 10° 202° (SSW) 6,344 15.9 24.5°
Sets 12:29:18 0° 177° (S) 7,871 16.0 24.2°
